Volver al catálogo

STARLINK-3395

ActivoComunicacionesVLEO
NORAD 51130·PAYLOAD·🇺🇸 United States

Lanzado Jan 19, 2022 desde Cape Canaveral Space Force Station

Loading…

Próximos Pases (próximas 24 horas)

TLE

ActualizadoSource: CelesTrak SupGP

Época: Sep 14, 2026, 21:37 UTC

1 51130C 22005AC  26257.90118056 -.00028675  00000+0 -84718-3 0  2578
2 51130  53.1586 163.9727 0001291  93.9290 233.8339 15.34406358    11

Sigue STARLINK-3395 en tiempo real con AllMySat

Download on the App Store